TimeMST,TemperatureF,Dew PointF,Humidity,Sea Level PressureIn,VisibilityMPH,Wind Direction,Wind SpeedMPH,Gust SpeedMPH,PrecipitationIn,Events,Conditions,WindDirDegrees,DateUTC
12:56 AM,55.0,19.0,24,29.94,10.0,NNE,10.4,-,N/A,,Clear,20,2012-11-01 07:56:00
1:56 AM,48.9,18.0,29,29.96,10.0,Calm,Calm,-,N/A,,Clear,0,2012-11-01 08:56:00
2:56 AM,46.9,17.1,30,29.96,10.0,Calm,Calm,-,N/A,,Clear,0,2012-11-01 09:56:00
3:56 AM,44.6,17.6,34,30.10,10.0,Calm,Calm,-,N/A,,Clear,0,2012-11-01 10:56:00
4:56 AM,44.6,15.8,31,30.11,10.0,Calm,Calm,-,N/A,,Clear,0,2012-11-01 11:56:00
5:56 AM,44.1,18.0,35,29.99,10.0,East,3.5,-,N/A,,Clear,80,2012-11-01 12:56:00
6:56 AM,44.1,17.1,34,30.03,10.0,Calm,Calm,-,N/A,,Clear,0,2012-11-01 13:56:00
7:56 AM,48.9,18.0,29,30.03,10.0,Calm,Calm,-,N/A,,Clear,0,2012-11-01 14:56:00
8:56 AM,59.0,19.4,22,30.14,10.0,Calm,Calm,-,N/A,,Clear,0,2012-11-01 15:56:00
9:56 AM,66.9,19.9,17,29.99,10.0,Calm,Calm,-,N/A,,Clear,0,2012-11-01 16:56:00
10:56 AM,72.0,21.0,15,29.97,10.0,South,3.5,-,N/A,,Clear,180,2012-11-01 17:56:00
11:56 AM,77.0,21.9,13,29.93,10.0,South,5.8,-,N/A,,Clear,180,2012-11-01 18:56:00
12:56 PM,79.0,23.0,13,29.90,10.0,South,4.6,-,N/A,,Clear,170,2012-11-01 19:56:00
1:56 PM,80.1,23.0,12,29.88,10.0,South,3.5,-,N/A,,Clear,190,2012-11-01 20:56:00
2:35 PM,82.4,23.0,11,30.02,10.0,SE,9.2,-,N/A,,Partly Cloudy,140,2012-11-01 21:35:00
2:56 PM,81.0,23.0,12,29.87,10.0,South,8.1,-,N/A,,Clear,180,2012-11-01 21:56:00
3:56 PM,80.1,23.0,12,29.86,10.0,WSW,9.2,-,N/A,,Clear,240,2012-11-01 22:56:00
4:56 PM,79.0,23.0,13,29.86,10.0,South,6.9,-,N/A,,Clear,170,2012-11-01 23:56:00
5:56 PM,71.1,21.9,16,29.89,10.0,South,5.8,-,N/A,,Clear,190,2012-11-02 00:56:00
6:56 PM,69.1,23.0,18,29.91,10.0,South,3.5,-,N/A,,Clear,190,2012-11-02 01:56:00
7:56 PM,66.9,23.0,19,29.91,10.0,Calm,Calm,-,N/A,,Clear,0,2012-11-02 02:56:00
8:56 PM,57.0,19.9,24,29.92,10.0,East,5.8,-,N/A,,Clear,90,2012-11-02 03:56:00
9:56 PM,57.0,21.0,25,29.91,10.0,NE,8.1,-,N/A,,Clear,40,2012-11-02 04:56:00
10:56 PM,60.1,25.0,26,29.90,10.0,North,3.5,-,N/A,,Clear,10,2012-11-02 05:56:00
11:56 PM,54.0,23.0,30,29.91,10.0,North,3.5,-,N/A,,Clear,350,2012-11-02 06:56:00